Find Starlink 4536

NORAD ID: 53783 Int'l Des: 2022-111 Owner: SPXS Country: US Constellation: starlink operational
LEOCIRCULAR

当前视图

正在加载3D地球...

About Starlink 4536

Starlink 4536 (NORAD 53783) is a starlink constellation satellite (v1.5) launched Sep 11, 2022 by SPXS of US. It operates in LEO, CIRCULAR orbit with a mass of 305.00 kg.

关于 Starlink 4536

正在加载描述...

即将过境

Passes for default location (London). Set your location on the main map for personalized predictions.

高度历史

Loading altitude history...

两行轨道根数

1 53783U 22111L 26167.29692370 -.00000126 00000-0 10208-4 0 9998
2 53783 53.1599 191.2841 0001257 85.6656 274.4479 15.08829843208585
Epoch: Jun 16, 2026 • Age: 9 hours

当前状态

高度 544.4 km
速度 7.59 km/s
星下点 -16.09°S, 23.51°E
发射日期 Sep 11, 2022
运行时间 3.7 years
类型 internet

技术详情

分类 Payload
质量 305.00 kg
干质量 290.00 kg
总质量 305.00 kg
长度 0.20 m
直径 2.80 m
跨度 9.00 m
形状 Box + pan
制造商 SPXS
平台类型 Starlink
阶段状态 In Orbit
所有者/国家 SPXS/US

Most Searched